User: anonymous   Login
Location: Unspecified
(0.0000°N, 0.0000°E)
Time: 11:56:13
(UTC+00:00)
Language:

GOMX4-A - Orbit

View from above orbital plane
View from above orbital plane
View from above satellite
View from above satellite

Ground track
Ground track

The orbit data is extracted from the following two-line orbital elements,

1 43197U 18015F   18348.15623682  .00000469  00000-0  22316-4 0  9993
2 43197  97.3694 113.6857 0017772 242.5370 200.1026 15.23849316 47949
Epoch (UTC): 14 December 2018 03:44:58
Eccentricity: 0.0017772
inclination: 97.3694°
perigee height: 482 km
apogee height: 506 km
right ascension of ascending node: 113.6857°
argument of perigee: 242.5370°
revolutions per day: 15.23849316
mean anomaly at epoch: 200.1026°
orbit number at epoch: 4794

The dashed part of the orbit path shows where the satellite is in the earth's shadow,  

DLR